| time (UTC) | temp C | wind direction | speed KPH | gust KPH | rain 1hr cm | rain 24hr cm | rain mn cm | humidity % | barometer mb |
| 20260504100323 | 7 | 164 | 4.8 | 9.7 | 0.00 | 0.00 | 0.00 | 60 | |
| 20260504081819 | 8 | 234 | 1.6 | 6.4 | 0.00 | 0.00 | 0.00 | 60 | |
| 20260504081319 | 8 | 233 | 1.6 | 6.4 | 0.00 | 0.00 | 0.00 | 60 | |
| 20260504080819 | 8 | 215 | 0.0 | 0.0 | 0.00 | 0.00 | 0.00 | 60 | |
| 20260504080340 | 8 | 218 | 0.0 | 3.2 | 0.00 | 0.00 | 0.00 | 60 | |
| 20260504070328 | 7 | 335 | 0.0 | 0.0 | 0.00 | 0.00 | 0.00 | 69 | |
| 20260504050328 | 7 | 27 | 0.0 | 0.0 | 0.00 | 0.00 | 0.00 | 74 | |
| 20260504045828 | 7 | 27 | 0.0 | 0.0 | 0.00 | 0.00 | 0.00 | 74 | |
| 20260504045329 | 7 | 27 | 0.0 | 0.0 | 0.00 | 0.00 | 0.00 | 74 | |
| 20260504044830 | 7 | 27 | 0.0 | 0.0 | 0.00 | 0.00 | 0.00 | 73 | |
| 20260504044328 | 7 | 27 | 0.0 | 0.0 | 0.00 | 0.00 | 0.00 | 73 | |
| 20260504043829 | 7 | 27 | 0.0 | 0.0 | 0.00 | 0.00 | 0.00 | 72 | |
| 20260504043329 | 7 | 27 | 0.0 | 0.0 | 0.00 | 0.00 | 0.00 | 71 | |
| 20260504042828 | 7 | 27 | 0.0 | 0.0 | 0.00 | 0.00 | 0.00 | 71 | |
| 20260504042329 | 7 | 27 | 0.0 | 0.0 | 0.00 | 0.00 | 0.00 | 71 | |
| 20260504041827 | 7 | 27 | 0.0 | 0.0 | 0.00 | 0.00 | 0.00 | 71 | |
| 20260504041325 | 7 | 27 | 0.0 | 0.0 | 0.00 | 0.00 | 0.00 | 70 | |
| 20260504040826 | 7 | 27 | 0.0 | 0.0 | 0.00 | 0.00 | 0.00 | 70 | |
| 20260504040325 | 7 | 27 | 0.0 | 0.0 | 0.00 | 0.00 | 0.00 | 69 | |
| 20260504035825 | 7 | 27 | 0.0 | 0.0 | 0.00 | 0.00 | 0.00 | 69 | |
| 20260504035346 | 7 | 333 | 0.0 | 0.0 | 0.00 | 0.00 | 0.00 | 69 | |
| 20260504034825 | 7 | 327 | 0.0 | 0.0 | 0.00 | 0.00 | 0.00 | 69 | |
| 20260504034324 | 7 | 327 | 0.0 | 0.0 | 0.00 | 0.00 | 0.00 | 69 | |
| 20260504033825 | 7 | 328 | 0.0 | 0.0 | 0.00 | 0.00 | 0.00 | 69 | |
| 20260504033327 | 7 | 327 | 0.0 | 0.0 | 0.00 | 0.00 | 0.00 | 69 | |
| 20260504032825 | 7 | 327 | 0.0 | 0.0 | 0.00 | 0.00 | 0.00 | 69 | |
| 20260504032325 | 7 | 327 | 0.0 | 0.0 | 0.00 | 0.00 | 0.00 | 69 | |
| 20260504031825 | 7 | 327 | 0.0 | 0.0 | 0.00 | 0.00 | 0.00 | 69 | |
| 20260504031325 | 7 | 327 | 0.0 | 0.0 | 0.00 | 0.00 | 0.00 | 68 | |
| 20260504030825 | 7 | 327 | 0.0 | 0.0 | 0.00 | 0.00 | 0.00 | 68 | |
| 20260504030323 | 7 | 327 | 0.0 | 0.0 | 0.00 | 0.00 | 0.00 | 68 | |
| 20260504025823 | 7 | 327 | 0.0 | 0.0 | 0.00 | 0.00 | 0.00 | 68 | |
| 20260504025322 | 7 | 327 | 0.0 | 0.0 | 0.00 | 0.00 | 0.00 | 67 | |
| 20260504024822 | 7 | 327 | 0.0 | 0.0 | 0.00 | 0.00 | 0.00 | 67 | |
| 20260504024314 | 7 | 327 | 0.0 | 0.0 | 0.00 | 0.00 | 0.00 | 67 | |
| 20260504023814 | 7 | 327 | 0.0 | 0.0 | 0.00 | 0.00 | 0.00 | 68 | |
| 20260504023314 | 7 | 327 | 0.0 | 0.0 | 0.00 | 0.00 | 0.00 | 67 | |
| 20260504022814 | 7 | 327 | 0.0 | 0.0 | 0.00 | 0.00 | 0.00 | 67 | |
| 20260504022316 | 7 | 327 | 0.0 | 0.0 | 0.00 | 0.00 | 0.00 | 67 | |
| 20260504021816 | 7 | 327 | 0.0 | 0.0 | 0.00 | 0.00 | 0.00 | 67 | |
| 20260504021315 | 7 | 327 | 0.0 | 1.6 | 0.00 | 0.00 | 0.00 | 66 | |
| 20260504020814 | 7 | 327 | 0.0 | 1.6 | 0.00 | 0.00 | 0.00 | 66 | |
| 20260504020335 | 7 | 328 | 0.0 | 4.8 | 0.00 | 0.00 | 0.00 | 66 | |
| 20260504015854 | 7 | 328 | 0.0 | 0.0 | 0.00 | 0.00 | 0.00 | 66 | |
| 20260504015349 | 7 | 332 | 0.0 | 0.0 | 0.00 | 0.00 | 0.00 | 65 | |
| 20260504014827 | 7 | 332 | 0.0 | 0.0 | 0.00 | 0.00 | 0.00 | 65 | |
| 20260504014328 | 7 | 330 | 0.0 | 0.0 | 0.00 | 0.00 | 0.00 | 65 | |
| 20260504013829 | 7 | 330 | 0.0 | 0.0 | 0.00 | 0.00 | 0.00 | 65 | |
| 20260504013328 | 7 | 330 | 0.0 | 0.0 | 0.00 | 0.00 | 0.00 | 64 | |
| 20260504012829 | 7 | 330 | 0.0 | 0.0 | 0.00 | 0.00 | 0.00 | 63 | |
| 20260504012329 | 7 | 330 | 0.0 | 3.2 | 0.00 | 0.00 | 0.00 | 63 | |
| 20260504011848 | 7 | 330 | 0.0 | 3.2 | 0.00 | 0.00 | 0.00 | 63 | |
| 20260504011326 | 7 | 324 | 0.0 | 0.0 | 0.00 | 0.00 | 0.00 | 62 | |
| 20260504010827 | 7 | 323 | 0.0 | 4.8 | 0.00 | 0.00 | 0.00 | 62 | |
| 20260504010328 | 8 | 323 | 0.0 | 4.8 | 0.00 | 0.00 | 0.00 | 61 | |
| 20260504005828 | 8 | 249 | 0.0 | 0.0 | 0.00 | 0.00 | 0.00 | 61 | |
| 20260504005349 | 8 | 248 | 0.0 | 0.0 | 0.00 | 0.00 | 0.00 | 60 | |
| 20260504004828 | 8 | 246 | 0.0 | 0.0 | 0.00 | 0.00 | 0.00 | 60 | |
| 20260504004328 | 8 | 245 | 0.0 | 0.0 | 0.00 | 0.00 | 0.00 | 59 | |
| 20260504003828 | 8 | 245 | 0.0 | 0.0 | 0.00 | 0.00 | 0.00 | 59 | |
| 20260504003328 | 9 | 236 | 0.0 | 0.0 | 0.00 | 0.00 | 0.00 | 58 | |
| 20260504002828 | 9 | 235 | 0.0 | 0.0 | 0.00 | 0.00 | 0.00 | 56 | |
| 20260504002327 | 10 | 235 | 0.0 | 0.0 | 0.00 | 0.00 | 0.00 | 53 | |
| 20260504001826 | 10 | 235 | 0.0 | 0.0 | 0.00 | 0.00 | 0.00 | 52 | |
| 20260504001325 | 10 | 235 | 0.0 | 4.8 | 0.00 | 0.00 | 0.00 | 50 | |
| 20260504000825 | 10 | 235 | 0.0 | 4.8 | 0.00 | 0.00 | 0.00 | 50 | |
| 20260504000324 | 10 | 230 | 0.0 | 0.0 | 0.00 | 0.00 | 0.00 | 50 | |
| 20260503235825 | 10 | 228 | 0.0 | 0.0 | 0.00 | 0.00 | 0.00 | 49 | |
| 20260503235326 | 10 | 230 | 0.0 | 0.0 | 0.00 | 0.00 | 0.00 | 49 | |
| 20260503234826 | 10 | 256 | 0.0 | 6.4 | 0.00 | 0.00 | 0.00 | 49 | |
| 20260503234325 | 10 | 256 | 0.0 | 8.0 | 0.00 | 0.00 | 0.00 | 49 | |
| 20260503233825 | 11 | 206 | 1.6 | 6.4 | 0.00 | 0.00 | 0.00 | 49 | |
| 20260503233324 | 11 | 241 | 0.0 | 0.0 | 0.00 | 0.00 | 0.00 | 48 | |
| 20260503232824 | 11 | 257 | 0.0 | 0.0 | 0.00 | 0.00 | 0.00 | 49 | |
| 20260503232324 | 11 | 253 | 0.0 | 9.7 | 0.00 | 0.00 | 0.00 | 48 | |
| 20260503231824 | 11 | 252 | 3.2 | 9.7 | 0.00 | 0.00 | 0.00 | 48 | |
| 20260503231343 | 11 | 187 | 0.0 | 9.7 | 0.00 | 0.00 | 0.00 | 48 | |
| 20260503230823 | 11 | 262 | 1.6 | 16.1 | 0.00 | 0.00 | 0.00 | 48 | |
| 20260503230321 | 11 | 214 | 0.0 | 16.1 | 0.00 | 0.00 | 0.00 | 49 | |
| 20260503225844 | 11 | 232 | 6.4 | 12.9 | 0.00 | 0.00 | 0.00 | 48 | |
| 20260503225344 | 11 | 286 | 4.8 | 9.7 | 0.00 | 0.00 | 0.00 | 49 | |
| 20260503224821 | 10 | 257 | 3.2 | 14.5 | 0.00 | 0.00 | 0.00 | 50 | |
| 20260503224342 | 10 | 232 | 1.6 | 12.9 | 0.00 | 0.00 | 0.00 | 50 | |
| 20260503223819 | 10 | 247 | 4.8 | 27.4 | 0.00 | 0.00 | 0.00 | 50 | |
| 20260503223337 | 10 | 256 | 11.3 | 27.4 | 0.00 | 0.00 | 0.00 | 49 | |
| 20260503222815 | 10 | 247 | 8.0 | 14.5 | 0.00 | 0.00 | 0.00 | 49 | |
| 20260503222316 | 10 | 226 | 4.8 | 17.7 | 0.00 | 0.00 | 0.00 | 48 | |
| 20260503221818 | 10 | 228 | 8.0 | 20.9 | 0.00 | 0.00 | 0.00 | 48 | |
| 20260503221317 | 11 | 315 | 9.7 | 20.9 | 0.00 | 0.00 | 0.00 | 47 | |
| 20260503220817 | 11 | 281 | 9.7 | 19.3 | 0.00 | 0.00 | 0.00 | 46 | |
| 20260503220317 | 11 | 273 | 9.7 | 17.7 | 0.00 | 0.00 | 0.00 | 45 | |
| 20260503215838 | 11 | 246 | 6.4 | 20.9 | 0.00 | 0.00 | 0.00 | 45 | |
| 20260503215316 | 11 | 264 | 9.7 | 20.9 | 0.00 | 0.00 | 0.00 | 44 | |
| 20260503214837 | 11 | 285 | 9.7 | 19.3 | 0.00 | 0.00 | 0.00 | 44 | |
| 20260503214316 | 11 | 303 | 9.7 | 19.3 | 0.00 | 0.00 | 0.00 | 44 | |
| 20260503213816 | 11 | 285 | 9.7 | 27.4 | 0.00 | 0.00 | 0.00 | 44 | |
| 20260503213316 | 11 | 285 | 17.7 | 27.4 | 0.00 | 0.00 | 0.00 | 43 | |
| 20260503212816 | 11 | 359 | 6.4 | 22.5 | 0.00 | 0.00 | 0.00 | 42 | |
| 20260503212316 | 11 | 287 | 6.4 | 30.6 | 0.00 | 0.00 | 0.00 | 42 | |
| 20260503211815 | 11 | 340 | 14.5 | 30.6 | 0.00 | 0.00 | 0.00 | 42 | |
| 20260503211314 | 11 | 266 | 6.4 | 20.9 | 0.00 | 0.00 | 0.00 | 41 | |
| 20260503210833 | 11 | 297 | 8.0 | 20.9 | 0.00 | 0.00 | 0.00 | 40 | |
| 20260503210331 | 12 | 220 | 8.0 | 16.1 | 0.00 | 0.00 | 0.00 | 40 | |
| 20260503205832 | 11 | 260 | 6.4 | 19.3 | 0.00 | 0.00 | 0.00 | 40 | |
| 20260503205331 | 11 | 266 | 9.7 | 19.3 | 0.00 | 0.00 | 0.00 | 39 | |
| 20260503204830 | 11 | 272 | 8.0 | 17.7 | 0.00 | 0.00 | 0.00 | 39 | |
| 20260503204351 | 11 | 289 | 8.0 | 25.7 | 0.00 | 0.00 | 0.00 | 39 | |
| 20260503203830 | 11 | 280 | 16.1 | 25.7 | 0.00 | 0.00 | 0.00 | 38 | |
| 20260503203345 | 11 | 268 | 9.7 | 19.3 | 0.00 | 0.00 | 0.00 | 37 | |
| 20260503202822 | 11 | 289 | 6.4 | 22.5 | 0.00 | 0.00 | 0.00 | 37 | |
| 20260503202325 | 11 | 264 | 11.3 | 22.5 | 0.00 | 0.00 | 0.00 | 36 | |
| 20260503201825 | 11 | 293 | 1.6 | 14.5 | 0.00 | 0.00 | 0.00 | 36 | |
| 20260503201324 | 11 | 245 | 8.0 | 20.9 | 0.00 | 0.00 | 0.00 | 35 | |
| 20260503200824 | 11 | 265 | 11.3 | 27.4 | 0.00 | 0.00 | 0.00 | 35 | |
| 20260503200325 | 11 | 326 | 6.4 | 20.9 | 0.00 | 0.00 | 0.00 | 33 | |
| 20260503195846 | 12 | 303 | 9.7 | 25.7 | 0.00 | 0.00 | 0.00 | 33 | |
| 20260503195344 | 12 | 283 | 8.0 | 22.5 | 0.00 | 0.00 | 0.00 | 33 | |
| 20260503194822 | 11 | 299 | 8.0 | 22.5 | 0.00 | 0.00 | 0.00 | 33 | |
| 20260503194323 | 12 | 318 | 9.7 | 27.4 | 0.00 | 0.00 | 0.00 | 33 | |
| 20260503193823 | 11 | 225 | 9.7 | 27.4 | 0.00 | 0.00 | 0.00 | 33 | |
| 20260503193321 | 11 | 297 | 9.7 | 32.2 | 0.00 | 0.00 | 0.00 | 33 | |
| 20260503192821 | 11 | 273 | 8.0 | 32.2 | 0.00 | 0.00 | 0.00 | 33 | |
| 20260503192320 | 11 | 241 | 11.3 | 30.6 | 0.00 | 0.00 | 0.00 | 34 | |
| 20260503191819 | 11 | 257 | 11.3 | 30.6 | 0.00 | 0.00 | 0.00 | 34 | |
| 20260503191319 | 11 | 292 | 8.0 | 17.7 | 0.00 | 0.00 | 0.00 | 35 | |
| 20260503190820 | 11 | 301 | 8.0 | 17.7 | 0.00 | 0.00 | 0.00 | 35 | |
| 20260503190319 | 11 | 222 | 8.0 | 33.8 | 0.00 | 0.00 | 0.00 | 36 | |
| 20260503185814 | 10 | 283 | 17.7 | 33.8 | 0.00 | 0.00 | 0.00 | 36 | |
| 20260503185333 | 10 | 314 | 16.1 | 29.0 | 0.00 | 0.00 | 0.00 | 36 | |
| 20260503184833 | 10 | 251 | 6.4 | 20.9 | 0.00 | 0.00 | 0.00 | 36 | |
| 20260503184333 | 10 | 233 | 9.7 | 20.9 | 0.00 | 0.00 | 0.00 | 37 | |
| 20260503183833 | 10 | 256 | 6.4 | 19.3 | 0.00 | 0.00 | 0.00 | 38 | |
| 20260503183332 | 10 | 314 | 9.7 | 20.9 | 0.00 | 0.00 | 0.00 | 37 | |
| 20260503182830 | 10 | 291 | 11.3 | 20.9 | 0.00 | 0.00 | 0.00 | 37 | |
| 20260503182329 | 10 | 282 | 4.8 | 17.7 | 0.00 | 0.00 | 0.00 | 38 | |
| 20260503181829 | 10 | 206 | 8.0 | 19.3 | 0.00 | 0.00 | 0.00 | 38 | |
| 20260503181329 | 10 | 272 | 6.4 | 20.9 | 0.00 | 0.00 | 0.00 | 37 | |
| 20260503180851 | 10 | 251 | 9.7 | 20.9 | 0.00 | 0.00 | 0.00 | 38 | |
| 20260503180330 | 10 | 262 | 9.7 | 22.5 | 0.00 | 0.00 | 0.00 | 39 | |
| 20260503175830 | 10 | 328 | 6.4 | 22.5 | 0.00 | 0.00 | 0.00 | 39 | |
| 20260503175329 | 10 | 334 | 9.7 | 22.5 | 0.00 | 0.00 | 0.00 | 39 | |
| 20260503174828 | 10 | 301 | 4.8 | 17.7 | 0.00 | 0.00 | 0.00 | 40 | |
| 20260503174327 | 9 | 274 | 9.7 | 24.1 | 0.00 | 0.00 | 0.00 | 41 | |
| 20260503173828 | 8 | 326 | 9.7 | 24.1 | 0.00 | 0.00 | 0.00 | 41 | |
| 20260503173348 | 8 | 301 | 6.4 | 17.7 | 0.00 | 0.00 | 0.00 | 41 | |
| 20260503172846 | 8 | 294 | 11.3 | 17.7 | 0.00 | 0.00 | 0.00 | 40 | |
| 20260503172324 | 8 | 264 | 4.8 | 22.5 | 0.00 | 0.00 | 0.00 | 41 | |
| 20260503171824 | 8 | 247 | 9.7 | 22.5 | 0.00 | 0.00 | 0.00 | 41 | |
| 20260503171324 | 8 | 324 | 9.7 | 24.1 | 0.00 | 0.00 | 0.00 | 42 | |
| 20260503170824 | 8 | 292 | 12.9 | 24.1 | 0.00 | 0.00 | 0.00 | 42 | |
| 20260503170323 | 8 | 257 | 0.0 | 24.1 | 0.00 | 0.00 | 0.00 | 44 | |
| 20260503150831 | 6 | 283 | 6.4 | 16.1 | 0.00 | 0.00 | 0.00 | 53 | |
| 20260503150348 | 5 | 354 | 4.8 | 22.5 | 0.00 | 0.00 | 0.00 | 53 | |
| 20260503131317 | 5 | 297 | 6.4 | 22.5 | 0.00 | 0.00 | 0.00 | 62 | |
| 20260503130836 | 5 | 262 | 8.0 | 22.5 | 0.00 | 0.00 | 0.00 | 64 | |
| 20260503130315 | 5 | 309 | 9.7 | 19.3 | 0.00 | 0.00 | 0.00 | 64 | |
| 20260503110824 | 2 | 224 | 0.0 | 3.2 | 0.00 | 0.00 | 0.00 | 80 | |
| 20260503110346 | 2 | 231 | 0.0 | 4.8 | 0.00 | 0.00 | 0.00 | 80 |